Presure
190 201 191 167 150 165 162 180 200 162 153 163 156 156 149 147 148 90 83 141 76 90 87 87 81 107 123 141 142 148 183 103 132 131 177 120 109 166 178 207 201 202 194 194 199 206 203 202 195
206 212 168 176 174 164 162 175 172 196 187 179 174 193 196 192 196 182 140 81 84 87 145 82 133 105 95 120 129 125 125 188 158 143 141 124 182 155 155 179 200 190 189 188 166 203 217 211 209
210 203 200 193 181 161 182 171 141 172 177 170 183 177 186 163 155 142 145 157 138 144 150 152 146 150 151 171 162 164 167 132 123 171 172 158 129 173 168 189 198 193 185 182 183 182 195 198 206
210 200 208 203 190 88 135 174 189 182 173 188 178 174 178 172 191 188 179 183 175 126 128 133 135 153 124 179 171 170 168 167 169 130 108 176 171 169 172 164 157 195 191 211 200 208 209 201 188
206 209 208 204 195 186 194 187 191 196 146 181 177 166 168 160 167 169 182 137 156 151 146 143 142 140 148 120 152 166 142 136 150 160 178 173 175 163 170 169 161 216 186 195 200 180 191 188 179
198 205 203 202 206 155 199 193 179 185 180 158 157 176 170 162 156 165 183 185 171 133 137 170 167 141 177 167 123 149 172 163 171 153 160 171 161 168 170 162 158 201 213 188 184 174 182 174 173
219 196 193 196 190 207 213 199 214 196 189 185 176 160 174 169 164 153 168 169 132 129 165 178 149 167 180 159 144 166 165 160 154 169 167 156 158 160 160 172 174 198 193 187 189 166 174 176 180
217 220 220 197 194 171 216 205 205 189 197 194 179 179 162 150 150 164 165 157 170 168 164 129 141 157 169 173 158 170 168 145 132 170 158 171 154 162 163 153 181 193 180 185 173 175 179 173 167
220 204 207 213 217 221 198 193 125 138 162 193 190 192 174 163 162 161 168 175 170 171 127 162 163 165 167 168 165 140 141 142 134 145 159 124 149 156 168 154 176 186 183 180 175 177 177 173 165
211 215 212 207 208 212 214 217 195 195 204 205 193 188 183 192 162 163 159 160 162 158 146 149 159 157 145 166 163 159 189 152 120 173 159 127 128 149 153 155 165 193 171 182 177 175 177 158 173
217 219 206 214 211 213 207 215 221 210 190 196 209 195 187 179 167 170 164 166 158 165 157 143 158 177 173 162 160 167 164 155 143 159 83 139 172 140 174 153 143 180 172 175 165 163 169 168 157
224 221 218 220 210 213 210 212 210 217 228 209 197 198 202 190 188 179 177 171 138 155 166 168 165 160 111 122 169 118 166 166 151 124 150 150 154 144 145 152 150 156 170 177 161 164 168 170 172
237 235 216 222 221 215 214 208 216 207 212 227 242 198 195 201 199 182 184 178 169 163 143 148 157 160 146 151 176 168 154 163 168 130 160 150 186 139 155 164 148 153 180 169 163 173 159 173 176
225 232 235 223 218 223 222 209 215 204 210 212 221 242 205 187 201 187 185 182 174 171 168 177 160 198 183 163 162 164 132 133 144 149 167 173 168 183 170 169 159 149 179 172 166 161 168 169 162
229 227 231 236 239 211 222 208 219 209 208 209 215 218 243 213 189 192 153 176 175 171 110 160 177 153 163 185 161 164 165 163 163 150 159 157 162 179 172 166 159 145 152 160 165 162 141 154 170
245 259 280 241 238 234 211 217 235 189 214 214 215 211 219 248 200 196 191 202 173 160 159 170 162 163 152 165 149 169 164 157 164 170 164 172 178 185 170 161 145 144 171 170 163 160 161 158 165
299 295 300 295 289 255 242 226 212 236 221 220 217 217 212 221 265 190 191 183 184 172 167 164 167 160 149 159 154 134 163 163 155 143 155 169 177 183 171 160 159 157 158 163 160 165 158 155 161
248 243 250 278 286 285 284 264 229 224 236 219 227 215 211 208 240 249 182 182 190 187 173 167 147 163 181 154 180 184 167 158 160 140 171 185 180 182 171 123 160 144 161 150 154 161 161 157 154
242 234 232 238 264 266 306 247 298 223 231 239 222 232 217 206 212 243 212 183 179 172 190 184 161 164 173 173 167 159 158 170 166 154 175 158 178 180 173 164 128 158 143 151 147 153 156 160 161
237 231 224 227 230 256 255 270 299 287 220 232 239 225 221 210 201 223 234 192 158 141 190 165 186 172 173 178 158 186 180 186 165 171 184 184 174 177 172 165 162 159 155 172 146 157 160 155 153
235 226 222 223 224 144 251 244 258 255 168 227 230 240 228 216 193 75 204 169 180 173 174 128 132 177 98 167 159 157 148 148 179 173 132 161 178 173 173 166 160 161 157 159 150 165 163 157 158
254 248 241 234 240 234 231 245 247 213 58 65 217 166 244 225 208 200 214 233 190 178 177 174 163 169 164 159 170 196 158 146 172 179 188 176 178 181 172 163 162 161 152 152 154 151 161 152 155
84 257 244 239 247 252 250 245 229 243 261 271 266 230 268 239 218 202 183 221 223 78 80 84 104 163 161 163 162 169 168 167 158 195 176 171 173 181 178 162 162 163 161 154 155 151 139 158 163
283 264 259 258 256 258 256 258 241 229 239 264 264 264 259 286 230 185 202 208 232 92 116 173 173 165 162 163 150 159 169 197 180 164 166 188 152 177 147 171 179 158 162 169 157 153 150 160 165
375 337 286 277 272 276 260 260 246 224 230 249 264 260 263 275 247 217 198 191 240 228 175 180 173 164 171 165 162 161 171 160 175 138 160 146 180 187 164 173 156 139 154 160 162 159 84 165 167
504 390 363 334 306 300 293 281 270 228 221 237 255 263 259 264 260 227 202 193 208 231 193 181 173 166 163 168 168 166 170 187 146 160 144 174 184 190 151 166 172 127 172 162 152 167 165 173 172
521 487 401 366 355 329 305 291 267 122 228 211 250 264 274 269 276 258 210 120 203 231 227 182 172 171 163 170 170 173 170 179 174 156 132 170 153 159 157 146 161 168 160 170 164 170 168 172 174
484 486 465 404 365 355 343 300 180 302 226 235 241 248 267 279 287 249 226 189 192 225 220 189 183 172 166 172 171 178 153 161 178 166 153 148 171 153 173 172 109 161 151 150 160 153 167 161 159
464 424 401 409 406 381 355 323 153 290 372 287 246 191 246 270 299 299 239 186 194 224 218 187 193 172 167 167 178 151 178 134 170 135 144 162 152 159 160 145 180 176 158 167 171 162 172 167 171
375 379 385 406 406 378 332 367 375 401 396 446 286 252 248 253 287 308 235 183 188 227 213 188 190 172 169 177 167 169 184 148 138 146 141 170 176 146 174 173 173 176 168 165 163 162 162 168 169
Wind_Speed
84 77 82 85 70 86 84 87 70 70 64 72 65 65 57 58 57 42 37 51 23 42 43 43 23 40 34 39 40 40 24 44 35 34 29 41 42 30 24 24 21 19 18 17 17 18 18 21 26
73 71 70 85 87 83 90 95 83 63 68 72 74 55 53 52 51 60 55 36 44 47 49 35 42 41 31 35 37 34 32 18 31 38 37 41 24 32 30 25 21 21 19 19 19 20 17 17 19
70 74 78 80 82 90 89 89 49 69 73 74 59 63 53 54 56 58 56 55 52 51 52 49 49 48 45 40 38 31 34 34 32 29 29 29 35 27 28 29 24 22 22 22 21 20 20 20 17
69 74 69 71 80 25 37 91 87 82 75 64 66 64 55 61 49 51 56 51 51 49 43 45 44 43 37 31 34 33 32 34 30 34 45 25 29 30 26 29 29 23 23 16 17 17 16 18 22
65 67 65 72 82 89 84 87 86 79 50 70 66 68 64 66 65 57 54 53 54 55 53 52 50 47 46 38 34 38 34 34 40 38 24 26 25 32 29 28 28 19 23 17 14 19 18 20 21
68 68 69 71 75 52 81 83 88 88 80 66 67 65 64 67 66 65 53 53 54 52 51 49 50 47 37 39 39 37 29 33 29 31 35 27 32 31 29 30 30 24 12 16 17 20 20 23 24
69 69 72 73 80 78 82 81 80 84 87 76 73 71 62 62 67 62 64 61 54 52 54 46 53 48 36 46 43 32 33 34 36 28 30 35 31 33 32 28 28 21 14 16 15 24 24 27 28
57 59 64 78 80 68 74 78 78 82 84 80 73 71 71 72 69 68 67 67 60 58 58 46 51 51 42 39 42 33 32 43 38 27 34 30 36 32 32 30 27 18 21 20 21 22 24 28 27
57 59 65 69 69 73 78 80 46 56 59 83 78 72 73 72 72 69 65 63 65 60 50 49 53 48 45 43 40 44 44 43 38 38 35 34 34 35 31 31 27 21 18 23 23 23 25 27 30
59 59 67 70 70 71 72 77 82 80 82 82 82 76 72 70 73 71 72 71 66 63 61 58 57 54 52 47 44 41 30 42 40 32 35 30 35 36 35 33 28 17 26 22 23 25 27 26 33
58 62 69 69 70 70 73 73 71 84 84 82 82 80 75 75 74 75 76 74 69 66 67 58 60 51 49 51 47 40 39 41 42 38 19 41 32 39 28 37 35 18 25 27 29 29 32 29 31
57 62 68 71 70 71 74 74 72 72 74 87 83 78 74 76 74 76 78 75 55 67 67 62 60 56 50 50 45 43 41 40 41 39 41 42 38 35 41 40 37 35 26 22 33 32 33 32 34
54 60 67 69 71 74 77 77 74 75 77 70 65 80 77 76 77 75 77 73 76 71 62 64 62 59 57 56 44 45 47 40 35 43 41 40 36 42 39 34 40 38 18 25 33 31 34 33 35
60 59 64 71 73 73 78 82 77 78 81 78 70 63 82 77 77 76 76 76 77 73 69 66 64 53 55 54 52 48 47 48 48 49 42 40 37 29 29 29 37 40 19 23 30 35 35 35 33
66 67 68 68 73 78 80 81 81 86 84 82 70 70 64 82 78 76 67 78 76 75 40 64 56 62 57 49 54 50 44 42 41 51 49 43 41 32 27 28 36 42 38 33 30 34 33 37 36
68 68 70 72 74 79 85 78 81 75 87 84 76 69 66 65 82 79 78 75 77 71 66 71 68 65 62 59 54 50 47 46 44 45 48 43 35 30 29 34 44 43 29 27 32 35 40 39 40
63 59 58 62 69 80 84 80 85 87 90 88 82 72 70 67 64 81 78 79 82 79 77 73 70 70 63 59 56 45 51 49 55 44 49 43 36 30 30 37 35 40 37 33 35 33 40 42 43
60 59 57 56 62 69 75 79 90 91 88 92 88 77 72 69 62 72 81 81 82 81 80 76 67 74 68 59 53 49 54 55 55 45 31 29 34 32 32 32 35 42 33 41 39 37 40 45 46
63 59 56 57 58 62 61 53 67 94 93 91 92 84 75 72 69 67 79 84 83 79 80 76 78 76 74 59 58 61 60 52 51 52 36 48 33 33 34 33 39 38 43 40 44 41 41 44 49
68 65 61 65 67 63 67 59 62 69 92 91 90 88 78 76 73 68 74 86 74 61 76 78 74 75 74 62 63 51 49 40 46 45 35 26 35 33 35 33 34 38 39 34 43 41 45 44 48
75 70 71 70 74 36 68 66 61 53 37 94 89 91 84 79 73 20 66 52 91 86 84 54 53 74 38 69 67 64 59 53 41 44 47 39 35 36 38 34 37 35 39 39 42 43 46 46 49
78 81 81 80 81 78 78 67 68 52 12 9 70 58 90 83 80 77 75 73 93 92 89 83 83 80 79 72 69 51 61 53 49 40 31 41 35 36 36 36 39 38 42 42 42 44 45 48 51
12 87 86 88 87 86 81 76 67 67 59 63 71 91 84 89 85 80 74 78 83 20 20 17 32 84 79 74 75 56 48 47 50 28 38 36 36 35 36 39 39 38 41 42 42 44 41 50 55
96 97 92 93 92 94 80 85 69 74 69 70 77 78 87 83 90 72 85 81 83 30 48 91 84 85 78 73 65 60 53 36 34 46 39 31 42 38 43 37 33 42 40 40 43 44 47 51 54
97 104 101 99 97 94 84 90 67 78 80 76 79 81 83 85 94 92 86 80 82 85 95 93 86 85 79 76 74 65 58 57 46 33 44 29 37 39 38 33 30 40 43 42 42 43 33 51 52
61 91 95 106 104 97 91 95 71 82 84 82 80 82 86 91 96 93 87 83 78 86 95 95 87 81 79 75 77 69 64 49 51 50 45 30 35 31 43 36 33 35 34 41 44 42 45 46 47
34 62 82 90 96 101 101 91 78 6 87 75 81 83 85 90 92 86 88 37 78 84 82 95 87 81 80 76 77 73 68 57 49 57 59 33 35 32 41 50 38 35 38 34 38 38 40 42 44
16 33 45 69 86 88 92 90 55 86 77 84 79 79 81 82 88 76 89 82 78 82 82 94 85 83 80 74 74 71 53 49 46 43 41 52 39 37 38 42 35 43 47 47 42 49 40 44 47
25 31 23 31 37 65 71 70 32 66 82 85 82 62 74 80 80 82 90 83 81 83 85 93 86 86 80 76 67 53 61 46 50 51 49 51 45 50 43 50 47 42 46 42 39 45 43 42 46
30 26 20 18 26 23 42 25 35 37 55 42 80 80 72 69 74 76 90 84 81 83 88 91 88 87 82 74 71 71 69 51 51 57 51 40 43 47 51 48 47 44 44 44 42 46 45 45 47
Wind_Direction
242 239 241 249 254 254 255 253 248 251 252 253 254 257 253 255 255 246 258 257 261 276 276 276 265 274 264 279 282 286 285 279 288 278 293 287 291 300 305 337 329 331 321 315 315 310 296 290 281
240 239 246 244 247 251 254 253 250 244 246 249 253 250 252 255 255 258 254 255 260 263 262 272 263 268 278 259 271 267 267 295 283 289 293 289 308 295 299 313 333 323 320 315 312 315 320 316 316
239 240 240 239 241 249 245 252 240 246 249 252 244 250 251 251 253 254 254 257 258 262 262 265 268 271 275 275 278 275 279 277 267 289 298 292 285 300 302 337 331 321 312 310 308 304 318 321 328
240 241 241 241 242 103 232 252 252 250 249 242 246 247 247 255 250 250 254 253 255 252 256 260 263 264 257 268 274 271 273 277 283 276 280 294 296 298 310 303 300 325 318 330 321 334 356 344 324
242 241 241 239 241 241 239 248 250 249 242 244 244 250 248 253 254 251 249 251 254 257 261 262 264 266 271 254 264 272 267 265 282 286 295 295 301 297 305 310 305 331 321 325 338 322 335 338 330
242 241 242 242 240 233 241 239 250 252 248 246 248 243 246 250 253 255 249 248 252 253 255 254 259 256 258 264 257 269 267 270 280 274 286 290 293 307 308 305 304 334 341 319 324 322 334 324 329
244 242 243 242 241 242 240 242 238 246 252 245 244 247 240 242 248 252 252 251 248 250 254 248 259 260 254 264 268 262 266 272 278 274 280 290 291 296 300 314 324 344 339 330 344 307 329 332 329
242 241 243 243 243 243 242 240 241 242 245 247 242 242 243 248 251 251 253 255 250 249 253 251 259 260 257 257 265 261 262 274 272 270 284 298 292 297 302 302 327 343 325 330 324 331 324 332 336
244 239 242 242 244 244 242 242 238 245 240 242 241 234 238 240 243 247 248 250 253 253 248 249 255 255 256 257 260 267 270 273 268 278 281 274 289 296 307 300 322 337 331 325 326 324 323 324 331
246 244 243 241 241 242 241 242 241 240 240 240 240 237 233 232 241 242 246 248 249 251 251 254 256 257 260 257 259 263 260 271 262 274 274 282 277 292 295 299 312 342 320 320 323 324 323 326 343
246 244 244 245 241 242 242 241 241 238 240 238 239 238 235 233 238 238 241 242 246 248 251 253 254 248 250 259 264 260 261 265 270 272 277 279 298 287 303 295 297 322 319 320 316 322 325 334 322
249 246 246 244 245 242 242 241 240 239 238 237 237 234 231 231 228 232 237 241 243 247 249 249 252 255 250 250 256 251 257 262 268 264 270 277 282 283 289 293 297 303 315 313 315 321 325 326 336
251 249 246 246 243 242 243 241 240 239 239 237 235 233 233 228 228 227 234 235 242 242 248 249 252 254 253 257 253 254 257 260 265 265 273 274 297 283 286 292 294 299 307 306 312 314 317 323 331
248 249 249 245 244 241 240 243 240 240 240 235 231 233 230 229 226 224 227 232 236 239 240 243 249 242 247 253 253 255 256 259 263 267 274 280 280 282 278 287 291 295 295 299 307 312 315 320 319
258 252 250 246 244 242 241 242 239 241 238 240 228 231 232 227 227 222 224 229 233 239 238 243 238 248 248 245 251 253 255 258 262 262 265 269 275 280 271 275 283 292 295 299 303 308 306 314 318
266 266 265 249 245 239 241 238 238 240 241 237 235 227 229 231 223 221 222 220 230 234 238 240 242 245 246 248 252 252 251 252 259 261 266 273 274 271 268 271 283 290 290 294 299 306 306 311 317
269 264 259 252 248 242 238 235 241 236 239 238 235 228 226 229 228 220 219 221 224 226 232 238 241 243 245 246 251 249 250 248 255 260 262 267 268 263 260 268 273 280 289 295 299 301 303 308 313
254 250 251 250 245 243 241 236 233 238 234 238 234 227 223 227 228 221 220 220 222 222 227 230 238 242 242 243 244 243 244 249 252 258 266 268 260 256 256 275 270 283 283 292 296 299 300 305 312
256 252 251 251 248 244 245 241 233 236 237 232 237 228 222 220 224 224 217 220 223 225 225 227 236 239 242 237 239 245 249 246 250 258 243 262 253 256 250 255 281 273 285 286 294 297 300 304 310
255 251 249 247 247 244 242 236 234 230 238 236 232 234 221 218 222 224 218 216 223 227 219 227 227 232 238 235 239 236 234 232 247 249 247 259 246 250 250 248 259 267 275 275 291 293 296 303 308
253 254 249 246 244 247 238 236 234 232 231 235 232 230 226 217 217 270 225 227 217 221 219 227 230 227 242 234 237 238 247 245 238 241 253 244 241 241 247 246 256 263 271 278 290 287 293 301 301
253 249 247 246 243 241 241 232 235 234 259 267 231 231 227 218 215 217 219 218 210 217 217 217 225 226 232 236 239 226 241 246 249 245 236 237 240 244 243 249 255 260 272 279 285 292 292 300 302
239 248 245 244 242 240 237 233 231 235 233 230 228 230 226 221 214 214 218 217 214 246 271 250 243 228 232 234 242 236 239 243 249 236 238 247 247 246 243 247 256 261 268 274 281 289 297 295 297
248 246 242 241 239 240 235 236 218 232 230 227 225 224 224 223 213 214 215 215 213 221 228 218 216 227 231 233 239 242 236 222 221 237 238 248 247 247 258 254 261 263 266 275 280 288 295 295 296
241 241 242 243 241 239 235 237 216 226 230 226 225 224 222 222 215 210 211 214 212 211 219 217 216 224 225 232 237 239 235 241 220 234 233 257 257 252 251 255 264 265 269 272 276 286 295 291 295
236 235 237 238 241 244 241 238 224 222 232 229 224 225 221 220 216 210 208 213 210 211 212 215 220 221 228 229 235 231 233 223 245 230 239 265 255 251 255 258 263 276 267 269 279 284 288 291 293
222 224 230 233 234 236 240 241 227 195 228 231 228 225 223 220 221 212 205 221 210 210 209 214 218 217 225 226 233 237 235 233 228 235 255 251 237 249 252 258 265 261 265 274 277 284 286 292 294
209 209 211 226 233 233 234 238 244 232 225 228 231 228 225 224 222 217 206 209 207 208 204 208 208 214 223 222 231 237 235 234 233 232 227 246 257 245 270 273 268 259 268 274 273 280 282 287 292
144 161 187 203 218 235 235 239 245 239 240 219 226 228 228 225 223 220 205 207 207 207 202 206 202 212 218 221 222 234 229 237 233 242 245 248 250 259 263 267 272 271 265 276 276 274 289 287 293
84 101 122 170 157 184 231 224 226 236 238 237 217 224 226 225 221 218 203 207 205 207 196 202 200 209 216 214 225 228 225 242 243 243 248 251 263 255 268 269 268 271 269 274 273 278 284 291 293